This demonstration page uses our WeatherBlox Daily Observations layout. Learn more.

Left ArrowRight Arrow

38.20091, -84.87328

Hourly Observations for April 17, 2016

Temp ( °F °C ) Dew Point ( °F °C ) Humidity (%) Winds ( mph kmh ) Pressure ( in mb ) Visibility ( mi km ) Precip ( " mm )
12:53 am 00:53 Clear 52 11.1 40 4.4 64 64 Calm 30.29 1026 10 16 0.00 0.00
1:53 am 01:53 Clear 49 9.4 41 5 74 74 Calm 30.30 1026 10 16 0.00 0.00
2:53 am 02:53 Clear 48 8.9 40 4.4 74 74 Calm 30.29 1026 10 16 0.00 0.00
3:53 am 03:53 Clear 47 8.3 39 3.9 74 74 Calm 30.30 1026 10 16 0.00 0.00
4:53 am 04:53 Clear 45 7.2 39 3.9 80 80 Calm 30.31 1027 10 16 0.00 0.00
5:53 am 05:53 Clear 44 6.7 39 3.9 83 83 Calm 30.32 1027 10 16 0.00 0.00
6:53 am 06:53 Clear 44 6.7 38 3.3 79 79 Calm 30.35 1028 10 16 0.00 0.00
7:53 am 07:53 Sunny 46 7.8 40 4.4 79 79 Calm 30.37 1028 10 16 0.00 0.00
8:53 am 08:53 Sunny 57 13.9 43 6.1 60 60 E 3 6 30.38 1029 10 16 0.00 0.00
9:53 am 09:53 Sunny 63 17.2 42 5.6 47 47 Calm 30.39 1029 10 16 0.00 0.00
10:53 am 10:53 Sunny 68 20 43 6.1 40 40 SW 6 9 30.39 1029 10 16 0.00 0.00
11:53 am 11:53 Sunny 74 23.3 46 7.8 37 37 VRB 3 6 30.38 1029 10 16 0.00 0.00
12:53 pm 12:53 Sunny 77 25 41 5 28 28 Calm 30.36 1028 10 16 0.00 0.00
1:53 pm 13:53 Sunny 79 26.1 38 3.3 23 23 VRB 3 6 30.34 1028 10 16 0.00 0.00
2:53 pm 14:53 Sunny 80 26.7 37 2.8 21 21 VRB 5 7 30.32 1027 10 16 0.00 0.00
3:53 pm 15:53 Sunny 80 26.7 35 1.7 20 20 VRB 6 9 30.30 1026 10 16 0.00 0.00
4:53 pm 16:53 Sunny 79 26.1 35 1.7 20 20 SSE 8 13 30.29 1026 10 16 0.00 0.00
5:53 pm 17:53 Sunny 79 26.1 39 3.9 24 24 SE 7 11 30.28 1025 10 16 0.00 0.00
6:53 pm 18:53 Sunny 77 25 36 2.2 23 23 ESE 6 9 30.28 1026 10 16 0.00 0.00
7:53 pm 19:53 Sunny 77 25 34 1.1 21 21 ESE 3 6 30.28 1025 10 16 0.00 0.00
8:53 pm 20:53 Clear 62 16.7 42 5.6 48 48 Calm 30.29 1026 10 16 0.00 0.00
9:53 pm 21:53 Clear 60 15.6 42 5.6 52 52 Calm 30.29 1026 10 16 0.00 0.00
10:53 pm 22:53 Clear 57 13.9 43 6.1 60 60 Calm 30.30 1026 10 16 0.00 0.00
11:53 pm 23:53 Clear 55 12.8 42 5.6 62 62 Calm 30.29 1026 10 16 0.00 0.00

Powered by AerisWeather